Location: Newark
(21.1200°N, 73.4000°E)
Time: 01:24:43
(UTC+00:00)

SR - Pass Details

Date: 06 February 2020
Orbit: 575 x 881 km, 66.7° (Epoch: 21 February)

Event Time Altitude Azimuth Distance (km) Brightness Sun altitude
Rises 01:30:18 0° 308° (NW) 3,136 - -3.4°
Exits shadow 01:31:05 - 304° (NW) 2,894 ? -3.2°
Reaches altitude 10° 01:34:19 10° 277° (W) 2,129 ? -2.5°
Maximum altitude 01:35:58 12° 257° (WSW) 1,983 ? -2.1°
Drops below altitude 10° 01:37:35 10° 236° (WSW) 2,061 ? -1.8°
Sets 01:41:19 0° 204° (SSW) 2,897 ? -0.9°
